contact:dominique.lefevre@mio.osupytheas.fr, maurice.libes@osupytheas.fr, didier.mallarino@osupytheas.fr
Project:EMSO http://www.emso-fr.org/EMSO-France
Depth: 2436.0 m
Title:EMSO Ligure Ouest : Data MII capteur AQUADOPP
Date,Latitude,Longitude,X_East,Y_North,Z_Up,Amplitude_X,Amplitude_Y,Amplitude_Z,Batterie,SoundSpeed,Heading,Pitch,Roll,Pressure,TIS,Speed,Direction
, degrees North, degrees East, m.s-1, m.s-1,m.s-1, 1, 1, 1, Volt, m.s-1, degree, degree, degree, dbar, degree_C, m.s-1, degree
2023-01-27T00:04:03,42.805,6.029,0.008,-0.017,0.031,104.0,104.0,103.0,13.4,1505.1,324.0,-0.8,1.8,2471.561,13.27,0.018,154.8
2023-01-27T00:07:03,42.805,6.029,0.018,0.0,0.028,104.0,104.0,103.0,13.3,1505.2,322.3,-0.7,1.9,2471.492,13.28,0.018,90.0
2023-01-27T00:10:03,42.805,6.029,0.024,-0.009,0.029,105.0,103.0,103.0,13.4,1505.2,334.2,-0.8,1.9,2471.3,13.28,0.025,110.6
2023-01-27T00:13:03,42.805,6.029,0.033,-0.01,0.012,104.0,104.0,103.0,13.3,1505.2,336.8,-0.8,1.8,2471.291,13.28,0.034,106.9
2023-01-27T00:16:03,42.805,6.029,0.0,-0.006,0.001,105.0,104.0,103.0,13.3,1505.2,322.1,-0.8,1.8,2471.252,13.28,0.006,180.0
2023-01-27T00:19:03,42.805,6.029,0.007,-0.01,0.006,103.0,104.0,103.0,13.4,1505.2,332.3,-0.8,1.8,2471.174,13.28,0.012,145.0
2023-01-27T00:22:03,42.805,6.029,0.014,0.005,0.02,105.0,103.0,103.0,13.4,1505.2,317.6,-0.8,1.9,2471.134,13.29,0.014,70.4
2023-01-27T00:25:03,42.805,6.029,0.031,-0.02,0.0,106.0,103.0,103.0,13.3,1505.2,325.7,-0.8,1.8,2471.144,13.29,0.036,122.8
2023-01-27T00:28:03,42.805,6.029,0.007,-0.004,0.014,103.0,104.0,103.0,13.3,1505.2,331.3,-0.8,1.9,2471.118,13.29,0.008,119.7
2023-01-27T00:31:03,42.805,6.029,0.011,-0.007,-0.007,105.0,104.0,103.0,13.4,1505.2,329.6,-0.8,1.8,2471.089,13.29,0.013,122.5
2023-01-27T00:34:03,42.805,6.029,0.022,-0.01,0.023,103.0,104.0,103.0,13.3,1505.2,325.0,-0.8,1.8,2471.074,13.29,0.024,114.4
2023-01-27T00:37:03,42.805,6.029,0.028,0.004,0.049,105.0,105.0,103.0,13.3,1505.2,327.5,-0.7,1.8,2471.069,13.29,0.028,81.9
2023-01-27T00:40:03,42.805,6.029,0.023,-0.015,-0.028,104.0,105.0,103.0,13.3,1505.2,331.1,-0.7,1.8,2471.051,13.29,0.027,123.1
2023-01-27T00:43:03,42.805,6.029,0.03,-0.018,0.019,105.0,106.0,102.0,13.3,1505.2,335.1,-0.8,1.8,2471.082,13.29,0.034,121.0
2023-01-27T00:46:03,42.805,6.029,0.02,-0.002,0.018,105.0,104.0,103.0,13.4,1505.2,330.2,-0.8,1.8,2471.056,13.29,0.02,95.7
2023-01-27T00:49:03,42.805,6.029,0.033,0.008,-0.007,105.0,104.0,103.0,13.4,1505.2,319.6,-0.7,1.8,2471.074,13.29,0.033,76.4
2023-01-27T00:52:03,42.805,6.029,0.041,-0.032,0.014,104.0,105.0,103.0,13.4,1505.2,330.1,-0.8,1.8,2471.034,13.29,0.052,128.0
2023-01-27T00:55:03,42.805,6.029,0.016,-0.007,-0.013,104.0,107.0,103.0,13.4,1505.2,332.5,-0.8,1.8,2471.104,13.29,0.017,113.6
2023-01-27T00:58:03,42.805,6.029,0.024,-0.006,-0.04,105.0,104.0,103.0,13.3,1505.2,330.5,-0.8,1.8,2471.074,13.29,0.024,104.0
2023-01-27T01:04:03,42.805,6.029,0.017,-0.005,-0.009,105.0,105.0,104.0,13.3,1505.2,329.4,-0.8,1.9,2471.11,13.28,0.017,106.4
2023-01-27T01:07:03,42.805,6.029,0.024,-0.022,-0.009,104.0,104.0,103.0,13.3,1505.2,332.1,-0.8,1.8,2471.115,13.28,0.032,132.5
2023-01-27T01:10:03,42.805,6.029,0.039,-0.002,0.024,105.0,105.0,102.0,13.4,1505.2,323.6,-0.8,1.9,2471.133,13.28,0.039,92.9
2023-01-27T01:13:03,42.805,6.029,0.023,-0.015,-0.023,104.0,106.0,101.0,13.4,1505.2,321.2,-0.8,1.8,2471.14,13.29,0.027,123.1
2023-01-27T01:16:03,42.805,6.029,0.019,-0.003,0.006,105.0,104.0,102.0,13.3,1505.2,328.0,-0.8,1.8,2471.079,13.29,0.019,99.0
2023-01-27T01:19:03,42.805,6.029,0.02,-0.015,-0.004,104.0,103.0,103.0,13.4,1505.2,330.7,-0.8,1.8,2471.046,13.29,0.025,126.9
2023-01-27T01:22:03,42.805,6.029,0.029,-0.013,0.009,103.0,105.0,103.0,13.4,1505.2,336.6,-0.7,1.8,2471.099,13.29,0.031,114.1
2023-01-27T01:25:03,42.805,6.029,0.009,0.0,0.026,105.0,104.0,102.0,13.4,1505.2,318.3,-0.8,1.8,2471.071,13.29,0.009,90.0
2023-01-27T01:28:03,42.805,6.029,0.034,-0.017,0.015,105.0,104.0,103.0,13.4,1505.2,330.5,-0.8,1.8,2471.048,13.29,0.038,116.6
2023-01-27T01:31:03,42.805,6.029,0.033,-0.02,0.021,105.0,106.0,103.0,13.3,1505.2,323.2,-0.7,1.8,2471.04,13.29,0.038,121.2
2023-01-27T01:34:03,42.805,6.029,0.035,-0.014,0.0,105.0,102.0,104.0,13.3,1505.2,321.2,-0.8,1.8,2471.03,13.29,0.037,111.8
2023-01-27T01:37:03,42.805,6.029,-0.003,0.014,0.014,104.0,105.0,103.0,13.3,1505.2,316.0,-0.8,1.9,2471.059,13.29,0.014,347.9
2023-01-27T01:40:03,42.805,6.029,0.028,0.001,0.008,104.0,105.0,103.0,13.3,1505.2,317.2,-0.7,1.8,2471.006,13.29,0.028,88.0
2023-01-27T01:43:03,42.805,6.029,0.031,-0.013,0.006,105.0,104.0,103.0,13.4,1505.2,323.3,-0.7,1.8,2471.059,13.29,0.033,112.7
2023-01-27T01:46:03,42.805,6.029,0.011,0.004,0.015,104.0,104.0,103.0,13.3,1505.2,328.0,-0.8,1.8,2471.023,13.29,0.011,70.0
2023-01-27T01:49:03,42.805,6.029,0.027,-0.002,0.001,105.0,104.0,102.0,13.4,1505.2,322.6,-0.8,1.8,2471.046,13.29,0.027,94.2
2023-01-27T01:52:03,42.805,6.029,0.027,0.005,0.004,104.0,105.0,103.0,13.4,1505.2,324.2,-0.8,1.8,2471.059,13.29,0.027,79.5
2023-01-27T01:55:03,42.805,6.029,0.025,-0.01,0.021,104.0,104.0,103.0,13.4,1505.2,337.0,-0.7,1.8,2470.999,13.29,0.026,111.8
2023-01-27T01:58:03,42.805,6.029,0.042,-0.006,-0.01,104.0,104.0,103.0,13.4,1505.2,319.1,-0.7,1.8,2471.044,13.29,0.042,98.1
2023-01-27T02:04:03,42.805,6.029,0.024,-0.023,-0.015,105.0,107.0,102.0,13.3,1505.2,329.8,-0.8,1.8,2471.062,13.28,0.033,133.8
2023-01-27T02:07:03,42.805,6.029,0.026,-0.012,-0.01,104.0,105.0,103.0,13.4,1505.2,330.8,-0.8,1.9,2471.058,13.28,0.028,114.8
2023-01-27T02:10:03,42.805,6.029,0.027,-0.005,-0.003,104.0,105.0,103.0,13.4,1505.2,338.0,-0.8,1.8,2471.08,13.28,0.027,100.5
2023-01-27T02:13:03,42.805,6.029,0.045,0.016,0.02,106.0,104.0,103.0,13.4,1505.2,317.5,-0.8,1.8,2471.026,13.29,0.047,70.4
2023-01-27T02:16:03,42.805,6.029,0.026,-0.008,-0.007,104.0,105.0,102.0,13.4,1505.2,324.3,-0.8,1.8,2471.044,13.29,0.027,107.1
2023-01-27T02:19:03,42.805,6.029,0.034,-0.017,0.035,104.0,106.0,103.0,13.4,1505.2,338.2,-0.8,1.9,2471.075,13.29,0.038,116.6
2023-01-27T02:22:03,42.805,6.029,0.034,-0.027,0.028,105.0,104.0,102.0,13.4,1505.2,339.8,-0.7,1.8,2471.032,13.29,0.043,128.5
2023-01-27T02:25:03,42.805,6.029,0.021,-0.013,0.014,105.0,106.0,102.0,13.4,1505.2,334.9,-0.7,1.8,2471.03,13.29,0.024,121.8
2023-01-27T02:28:03,42.805,6.029,0.041,-0.015,0.009,105.0,105.0,104.0,13.3,1505.2,335.7,-0.7,1.8,2471.041,13.29,0.043,110.1
2023-01-27T02:31:03,42.805,6.029,-0.001,-0.013,0.011,104.0,104.0,103.0,13.4,1505.2,333.4,-0.8,1.8,2470.989,13.29,0.013,184.4
2023-01-27T02:34:03,42.805,6.029,0.024,-0.026,0.027,105.0,104.0,103.0,13.3,1505.2,329.0,-0.8,1.8,2471.007,13.29,0.035,137.3
2023-01-27T02:37:03,42.805,6.029,0.029,-0.029,-0.002,104.0,104.0,103.0,13.4,1505.2,336.8,-0.7,1.8,2471.045,13.29,0.041,135.0
2023-01-27T02:40:03,42.805,6.029,0.026,-0.015,-0.007,104.0,103.0,103.0,13.3,1505.2,328.3,-0.8,1.9,2471.007,13.29,0.03,120.0
2023-01-27T02:43:03,42.805,6.029,0.043,-0.03,0.007,105.0,105.0,103.0,13.4,1505.2,316.6,-0.8,1.8,2471.025,13.29,0.052,124.9
2023-01-27T02:46:03,42.805,6.029,0.031,-0.001,0.03,104.0,104.0,103.0,13.4,1505.2,326.5,-0.8,1.8,2471.016,13.29,0.031,91.8
2023-01-27T02:49:03,42.805,6.029,0.016,-0.015,0.017,104.0,105.0,104.0,13.3,1505.2,331.3,-0.7,1.8,2471.03,13.29,0.021,133.1
2023-01-27T02:52:03,42.805,6.029,0.026,-0.017,0.027,104.0,105.0,102.0,13.4,1505.2,316.5,-0.8,1.8,2471.023,13.29,0.031,123.2
2023-01-27T02:55:03,42.805,6.029,0.02,0.011,0.01,104.0,104.0,104.0,13.3,1505.2,325.3,-0.7,1.8,2471.01,13.29,0.022,61.2
2023-01-27T02:58:03,42.805,6.029,0.025,-0.014,0.009,105.0,105.0,102.0,13.4,1505.2,322.4,-0.8,1.8,2471.001,13.29,0.028,119.3
2023-01-27T03:04:03,42.805,6.029,0.032,-0.008,0.008,105.0,104.0,104.0,13.4,1505.2,318.3,-0.8,1.8,2471.037,13.28,0.032,104.0
2023-01-27T03:07:03,42.805,6.029,0.042,-0.025,-0.026,105.0,104.0,104.0,13.3,1505.2,327.9,-0.8,1.9,2471.011,13.28,0.048,120.8
2023-01-27T03:10:03,42.805,6.029,0.031,-0.018,0.013,106.0,104.0,102.0,13.4,1505.2,330.0,-0.8,1.8,2471.018,13.28,0.035,120.1
2023-01-27T03:13:03,42.805,6.029,0.028,-0.013,-0.001,104.0,103.0,104.0,13.4,1505.2,318.4,-0.8,1.8,2471.03,13.28,0.03,114.9
2023-01-27T03:16:03,42.805,6.029,0.021,-0.013,0.006,104.0,104.0,103.0,13.4,1505.2,339.2,-0.7,1.8,2471.068,13.29,0.024,121.8
2023-01-27T03:19:03,42.805,6.029,0.032,-0.022,0.008,104.0,105.0,102.0,13.3,1505.2,334.1,-0.8,1.8,2471.006,13.29,0.038,124.5
2023-01-27T03:22:03,42.805,6.029,0.011,-0.008,0.02,105.0,105.0,103.0,13.4,1505.2,330.5,-0.7,1.8,2471.029,13.29,0.013,126.0
2023-01-27T03:25:03,42.805,6.029,0.018,-0.01,0.022,104.0,105.0,103.0,13.3,1505.2,317.0,-0.8,1.8,2471.006,13.29,0.02,119.1
2023-01-27T03:28:03,42.805,6.029,0.027,-0.015,0.016,105.0,104.0,103.0,13.4,1505.2,326.8,-0.8,1.8,2471.014,13.29,0.03,119.1
2023-01-27T03:31:03,42.805,6.029,0.026,-0.023,0.008,104.0,104.0,103.0,13.4,1505.2,337.1,-0.8,1.8,2471.015,13.29,0.034,131.5
2023-01-27T03:34:03,42.805,6.029,0.027,-0.002,0.028,105.0,104.0,103.0,13.4,1505.2,333.0,-0.8,1.8,2470.964,13.29,0.027,94.2
2023-01-27T03:37:03,42.805,6.029,0.049,-0.018,0.009,106.0,103.0,103.0,13.3,1505.2,320.9,-0.8,1.8,2470.952,13.29,0.052,110.2
2023-01-27T03:40:03,42.805,6.029,0.046,-0.011,-0.005,106.0,103.0,103.0,13.4,1505.2,338.2,-0.7,1.9,2470.995,13.29,0.047,103.4
2023-01-27T03:43:03,42.805,6.029,0.038,-0.011,0.031,105.0,104.0,103.0,13.4,1505.2,317.1,-0.8,1.8,2470.993,13.29,0.039,106.1
2023-01-27T03:46:03,42.805,6.029,0.05,-0.004,0.01,105.0,104.0,103.0,13.4,1505.2,327.3,-0.8,1.8,2471.022,13.29,0.05,94.6
2023-01-27T03:49:03,42.805,6.029,0.035,-0.019,0.031,106.0,105.0,103.0,13.3,1505.2,324.5,-0.7,1.8,2470.975,13.29,0.039,118.5
2023-01-27T03:52:03,42.805,6.029,0.024,-0.005,0.012,105.0,104.0,103.0,13.3,1505.2,326.7,-0.8,1.8,2470.991,13.29,0.024,101.8
2023-01-27T03:55:03,42.805,6.029,0.019,-0.036,0.008,105.0,104.0,103.0,13.3,1505.2,338.3,-0.8,1.8,2470.947,13.29,0.04,152.2
2023-01-27T03:58:03,42.805,6.029,0.025,-0.014,-0.014,105.0,104.0,103.0,13.3,1505.2,323.4,-0.8,1.8,2471.014,13.29,0.028,119.3
2023-01-27T04:04:03,42.805,6.029,0.025,-0.014,0.0,105.0,104.0,103.0,13.3,1505.2,330.2,-0.8,1.8,2471.033,13.28,0.028,119.3
2023-01-27T04:07:03,42.805,6.029,0.028,-0.012,0.016,105.0,105.0,103.0,13.4,1505.2,316.6,-0.7,1.8,2471.048,13.28,0.03,113.2
2023-01-27T04:10:03,42.805,6.029,0.028,-0.028,-0.005,105.0,104.0,102.0,13.4,1505.2,329.8,-0.8,1.8,2471.047,13.28,0.039,135.0
2023-01-27T04:13:03,42.805,6.029,0.027,-0.036,-0.006,104.0,104.0,104.0,13.4,1505.2,329.6,-0.7,1.8,2471.028,13.28,0.045,143.1
2023-01-27T04:16:03,42.805,6.029,0.003,-0.007,-0.021,104.0,105.0,103.0,13.4,1505.2,333.0,-0.7,1.8,2470.955,13.28,0.007,156.8
2023-01-27T04:19:03,42.805,6.029,0.039,-0.02,-0.012,105.0,104.0,103.0,13.4,1505.2,320.3,-0.8,1.8,2471.022,13.29,0.043,117.1
2023-01-27T04:22:03,42.805,6.029,0.037,0.001,0.026,105.0,104.0,104.0,13.4,1505.2,324.4,-0.8,1.8,2470.99,13.29,0.037,88.5
2023-01-27T04:25:03,42.805,6.029,0.036,-0.019,0.0,104.0,105.0,103.0,13.4,1505.2,327.0,-0.8,1.8,2470.985,13.29,0.04,117.8
2023-01-27T04:28:03,42.805,6.029,0.028,-0.025,0.032,104.0,105.0,103.0,13.4,1505.2,334.6,-0.8,1.8,2471.016,13.29,0.037,131.8
2023-01-27T04:31:03,42.805,6.029,0.027,-0.023,0.008,104.0,103.0,104.0,13.3,1505.2,338.3,-0.8,1.8,2470.976,13.29,0.035,130.4
2023-01-27T04:34:03,42.805,6.029,0.046,0.0,-0.004,104.0,104.0,104.0,13.4,1505.2,320.6,-0.8,1.8,2470.986,13.29,0.046,90.0
2023-01-27T04:37:03,42.805,6.029,0.029,-0.029,0.007,105.0,105.0,104.0,13.3,1505.2,321.9,-0.8,1.8,2470.964,13.29,0.041,135.0
2023-01-27T04:40:03,42.805,6.029,0.023,-0.01,-0.002,105.0,105.0,103.0,13.4,1505.2,338.7,-0.7,1.8,2470.97,13.29,0.025,113.5
2023-01-27T04:43:03,42.805,6.029,0.009,-0.002,-0.014,106.0,103.0,103.0,13.4,1505.2,318.3,-0.8,1.8,2470.972,13.29,0.009,102.5
2023-01-27T04:46:03,42.805,6.029,0.029,-0.034,0.004,105.0,104.0,103.0,13.3,1505.2,320.9,-0.8,1.8,2470.97,13.29,0.044,139.5
2023-01-27T04:49:03,42.805,6.029,0.031,-0.011,-0.011,105.0,105.0,104.0,13.4,1505.2,329.1,-0.8,1.8,2470.958,13.29,0.032,109.5
2023-01-27T04:52:03,42.805,6.029,0.032,-0.019,-0.012,105.0,105.0,103.0,13.4,1505.2,328.8,-0.8,1.8,2470.975,13.29,0.037,120.7
2023-01-27T04:55:03,42.805,6.029,0.018,-0.024,-0.025,104.0,105.0,103.0,13.4,1505.2,336.8,-0.8,1.8,2470.992,13.29,0.03,143.1
2023-01-27T04:58:03,42.805,6.029,0.019,-0.018,0.02,105.0,104.0,103.0,13.3,1505.2,318.5,-0.8,1.8,2470.962,13.29,0.026,133.5
2023-01-27T05:04:03,42.805,6.029,0.026,-0.003,0.004,104.0,105.0,103.0,13.4,1505.2,324.0,-0.7,1.8,2471.036,13.28,0.026,96.6
2023-01-27T05:07:03,42.805,6.029,0.018,-0.006,0.002,105.0,105.0,103.0,13.4,1505.2,323.9,-0.8,1.8,2471.009,13.28,0.018,108.4
2023-01-27T05:10:03,42.805,6.029,0.013,-0.029,-0.003,105.0,105.0,103.0,13.3,1505.2,336.8,-0.8,1.8,2470.991,13.28,0.031,155.9
2023-01-27T05:13:03,42.805,6.029,0.028,-0.037,-0.036,105.0,104.0,103.0,13.4,1505.2,321.8,-0.7,1.8,2470.988,13.29,0.046,142.9
2023-01-27T05:16:03,42.805,6.029,0.028,-0.001,-0.016,106.0,104.0,104.0,13.4,1505.2,324.8,-0.7,1.8,2470.996,13.29,0.028,92.0
2023-01-27T05:19:03,42.805,6.029,0.032,-0.029,-0.003,105.0,105.0,103.0,13.4,1505.2,332.2,-0.8,1.8,2471.01,13.29,0.043,132.2
2023-01-27T05:22:03,42.805,6.029,0.039,-0.011,-0.002,105.0,105.0,102.0,13.3,1505.2,322.8,-0.8,1.8,2471.001,13.29,0.04,105.7
2023-01-27T05:25:03,42.805,6.029,0.039,-0.019,-0.004,105.0,105.0,103.0,13.4,1505.2,325.8,-0.8,1.8,2470.978,13.29,0.043,116.0
2023-01-27T05:28:03,42.805,6.029,0.01,-0.006,0.005,106.0,105.0,103.0,13.4,1505.2,333.4,-0.8,1.8,2470.97,13.29,0.011,121.0
2023-01-27T05:31:03,42.805,6.029,0.026,-0.015,0.025,104.0,105.0,103.0,13.4,1505.2,323.9,-0.8,1.8,2470.953,13.29,0.03,120.0
2023-01-27T05:34:03,42.805,6.029,0.024,-0.009,-0.016,106.0,104.0,103.0,13.3,1505.2,337.1,-0.8,1.8,2470.977,13.29,0.025,110.6
2023-01-27T05:37:03,42.805,6.029,0.026,-0.055,-0.014,105.0,105.0,104.0,13.4,1505.2,332.7,-0.8,1.8,2471.014,13.29,0.06,154.7
2023-01-27T05:40:03,42.805,6.029,0.019,-0.017,-0.008,106.0,104.0,103.0,13.3,1505.2,328.2,-0.8,1.8,2470.991,13.29,0.025,131.8
2023-01-27T05:43:03,42.805,6.029,0.017,-0.019,-0.006,106.0,105.0,103.0,13.4,1505.2,316.7,-0.8,1.8,2470.993,13.29,0.025,138.2
2023-01-27T05:46:03,42.805,6.029,0.011,-0.011,0.017,105.0,105.0,103.0,13.4,1505.2,326.3,-0.8,1.8,2470.97,13.29,0.015,135.0
2023-01-27T05:49:03,42.805,6.029,0.028,-0.024,0.002,106.0,104.0,103.0,13.4,1505.2,328.7,-0.8,1.8,2470.951,13.29,0.036,130.6
2023-01-27T05:52:03,42.805,6.029,0.015,-0.028,0.0,105.0,104.0,103.0,13.4,1505.2,319.1,-0.7,1.8,2470.979,13.29,0.031,151.8
2023-01-27T05:55:03,42.805,6.029,0.04,-0.018,0.029,104.0,105.0,103.0,13.4,1505.2,324.1,-0.8,1.8,2470.947,13.29,0.043,114.2
2023-01-27T05:58:03,42.805,6.029,0.031,-0.017,0.004,105.0,104.0,102.0,13.3,1505.2,321.7,-0.7,1.8,2470.993,13.29,0.035,118.7
2023-01-27T06:04:03,42.805,6.029,0.017,-0.024,0.004,105.0,104.0,103.0,13.3,1505.2,332.2,-0.8,1.8,2471.022,13.28,0.029,144.7
2023-01-27T06:07:03,42.805,6.029,0.028,-0.017,0.0,105.0,105.0,103.0,13.4,1505.2,321.3,-0.7,1.8,2471.002,13.28,0.032,121.3
2023-01-27T06:10:03,42.805,6.029,0.013,-0.015,0.0,105.0,104.0,104.0,13.4,1505.2,336.8,-0.7,1.8,2471.016,13.29,0.019,139.1
2023-01-27T06:13:03,42.805,6.029,0.02,-0.028,-0.006,105.0,105.0,103.0,13.4,1505.2,334.5,-0.8,1.8,2471.012,13.29,0.034,144.5
2023-01-27T06:16:03,42.805,6.029,0.028,-0.018,-0.009,105.0,105.0,103.0,13.4,1505.2,326.5,-0.8,1.8,2470.974,13.29,0.033,122.7
2023-01-27T06:19:03,42.805,6.029,-0.003,-0.023,0.004,106.0,104.0,103.0,13.3,1505.2,317.2,-0.8,1.8,2471.01,13.29,0.023,187.4
2023-01-27T06:22:03,42.805,6.029,0.028,-0.025,-0.028,105.0,104.0,103.0,13.3,1505.2,330.4,-0.8,1.8,2470.966,13.29,0.037,131.8
2023-01-27T06:25:03,42.805,6.029,0.021,-0.013,0.009,104.0,105.0,104.0,13.4,1505.2,337.3,-0.8,1.8,2470.969,13.29,0.024,121.8
2023-01-27T06:28:03,42.805,6.029,0.028,-0.017,0.006,104.0,106.0,102.0,13.4,1505.2,323.8,-0.8,1.8,2471.008,13.29,0.032,121.3
2023-01-27T06:31:03,42.805,6.029,0.02,-0.013,-0.01,105.0,105.0,103.0,13.4,1505.2,327.5,-0.8,1.8,2471.001,13.29,0.023,123.0
2023-01-27T06:34:03,42.805,6.029,0.014,-0.003,0.024,106.0,105.0,103.0,13.4,1505.2,336.4,-0.8,1.8,2470.97,13.29,0.014,102.1
2023-01-27T06:37:03,42.805,6.029,0.01,-0.016,0.007,105.0,106.0,103.0,13.4,1505.2,324.7,-0.8,1.8,2471.004,13.29,0.018,148.0
2023-01-27T06:40:03,42.805,6.029,0.009,-0.022,0.014,104.0,105.0,103.0,13.3,1505.2,333.8,-0.8,1.8,2470.958,13.29,0.023,157.8
2023-01-27T06:43:03,42.805,6.029,-0.015,-0.02,-0.004,106.0,105.0,103.0,13.3,1505.2,338.2,-0.8,1.8,2470.992,13.29,0.025,216.9
2023-01-27T06:46:03,42.805,6.029,0.013,-0.007,0.022,105.0,105.0,103.0,13.4,1505.2,320.9,-0.8,1.8,2470.999,13.29,0.014,118.3
2023-01-27T06:49:03,42.805,6.029,0.0,-0.021,-0.049,105.0,105.0,104.0,13.4,1505.2,321.2,-0.7,1.8,2470.98,13.29,0.021,180.0
2023-01-27T06:52:03,42.805,6.029,0.035,-0.006,-0.011,105.0,105.0,103.0,13.4,1505.2,321.9,-0.7,1.8,2471.009,13.29,0.035,99.7
2023-01-27T06:55:03,42.805,6.029,0.027,-0.014,0.03,105.0,104.0,104.0,13.3,1505.2,334.2,-0.8,1.8,2471.003,13.29,0.03,117.4
2023-01-27T06:58:03,42.805,6.029,0.02,-0.005,-0.023,105.0,105.0,104.0,13.3,1505.2,331.3,-0.8,1.8,2471.004,13.29,0.02,104.0
2023-01-27T07:04:03,42.805,6.029,0.015,-0.02,-0.009,107.0,105.0,103.0,13.4,1505.2,322.2,-0.7,1.8,2471.034,13.28,0.025,143.1
2023-01-27T07:07:03,42.805,6.029,0.025,-0.014,-0.003,106.0,105.0,104.0,13.4,1505.2,323.6,-0.8,1.8,2471.057,13.28,0.028,119.3
2023-01-27T07:10:03,42.805,6.029,0.03,0.0,0.016,106.0,105.0,103.0,13.4,1505.2,336.3,-0.7,1.8,2471.051,13.29,0.03,90.0
2023-01-27T07:13:03,42.805,6.029,0.031,-0.004,0.009,106.0,106.0,104.0,13.4,1505.2,326.3,-0.7,1.8,2471.016,13.29,0.031,97.3
2023-01-27T07:16:03,42.805,6.029,0.02,-0.018,-0.029,105.0,105.0,103.0,13.3,1505.2,325.6,-0.7,1.8,2471.044,13.29,0.026,132.0
2023-01-27T07:19:03,42.805,6.029,0.0,-0.019,-0.015,106.0,104.0,104.0,13.3,1505.2,325.2,-0.8,1.8,2471.046,13.29,0.019,180.0
2023-01-27T07:22:03,42.805,6.029,0.037,-0.008,-0.013,104.0,105.0,103.0,13.3,1505.2,328.8,-0.7,1.8,2471.028,13.29,0.037,102.2
2023-01-27T07:25:03,42.805,6.029,0.038,-0.005,-0.006,105.0,106.0,103.0,13.4,1505.2,325.0,-0.7,1.8,2471.038,13.29,0.038,97.5
2023-01-27T07:28:03,42.805,6.029,0.043,-0.017,-0.016,105.0,106.0,103.0,13.4,1505.2,317.0,-0.8,1.8,2471.001,13.29,0.046,111.6
2023-01-27T07:31:03,42.805,6.029,0.017,-0.004,-0.007,105.0,105.0,103.0,13.3,1505.2,319.6,-0.8,1.8,2471.051,13.29,0.017,103.2
2023-01-27T07:34:03,42.805,6.029,-0.001,-0.018,0.007,105.0,104.0,103.0,13.4,1505.2,329.8,-0.8,1.8,2471.004,13.29,0.018,183.2
2023-01-27T07:37:03,42.805,6.029,0.012,-0.004,0.006,106.0,105.0,104.0,13.4,1505.2,331.6,-0.7,1.8,2471.036,13.29,0.012,108.4
2023-01-27T07:40:03,42.805,6.029,0.026,-0.025,-0.006,105.0,105.0,103.0,13.4,1505.2,331.9,-0.8,1.8,2471.053,13.29,0.036,133.9
2023-01-27T07:43:03,42.805,6.029,0.022,-0.028,0.014,105.0,105.0,103.0,13.4,1505.2,323.8,-0.8,1.8,2471.022,13.29,0.035,141.8
2023-01-27T07:46:03,42.805,6.029,0.022,0.007,0.0,105.0,106.0,103.0,13.3,1505.2,322.3,-0.8,1.8,2471.036,13.29,0.023,72.4
2023-01-27T07:49:03,42.805,6.029,0.025,-0.029,-0.003,105.0,105.0,103.0,13.4,1505.2,322.9,-0.8,1.8,2471.064,13.29,0.038,139.2
2023-01-27T07:52:03,42.805,6.029,0.022,-0.035,-0.028,104.0,105.0,103.0,13.4,1505.2,327.2,-0.8,1.8,2471.067,13.29,0.041,147.8
2023-01-27T07:55:03,42.805,6.029,0.014,-0.001,0.003,104.0,105.0,103.0,13.3,1505.2,323.9,-0.7,1.8,2471.05,13.29,0.014,94.1
2023-01-27T07:58:03,42.805,6.029,0.025,-0.026,-0.031,105.0,105.0,103.0,13.3,1505.2,322.3,-0.8,1.8,2471.058,13.29,0.036,136.1
2023-01-27T08:04:03,42.805,6.029,0.011,-0.001,0.026,105.0,104.0,103.0,13.4,1505.2,333.0,-0.8,1.8,2471.068,13.28,0.011,95.2
2023-01-27T08:07:03,42.805,6.029,0.029,-0.006,-0.001,103.0,104.0,104.0,13.3,1505.2,336.9,-0.8,1.8,2471.087,13.28,0.029,101.7
2023-01-27T08:10:03,42.805,6.029,0.033,0.008,-0.013,105.0,104.0,104.0,13.4,1505.2,321.6,-0.8,1.8,2471.07,13.29,0.033,76.4
2023-01-27T08:13:03,42.805,6.029,0.02,-0.022,-0.017,105.0,104.0,103.0,13.4,1505.2,325.2,-0.8,1.8,2471.114,13.29,0.029,137.7
2023-01-27T08:16:03,42.805,6.029,0.012,-0.026,-0.006,104.0,105.0,103.0,13.4,1505.2,333.4,-0.7,1.8,2471.083,13.29,0.028,155.2
2023-01-27T08:19:03,42.805,6.029,0.025,-0.007,-0.004,105.0,104.0,104.0,13.3,1505.2,336.6,-0.7,1.8,2471.087,13.29,0.025,105.6
2023-01-27T08:22:03,42.805,6.029,0.008,-0.005,0.027,106.0,104.0,104.0,13.4,1505.2,322.9,-0.8,1.8,2471.09,13.29,0.009,122.0
2023-01-27T08:25:03,42.805,6.029,0.013,-0.026,-0.031,104.0,105.0,103.0,13.4,1505.2,324.3,-0.8,1.9,2471.09,13.29,0.029,153.4
2023-01-27T08:28:03,42.805,6.029,0.021,-0.007,0.029,105.0,104.0,104.0,13.4,1505.2,334.2,-0.8,1.8,2471.094,13.29,0.022,108.4
2023-01-27T08:31:03,42.805,6.029,0.028,-0.018,-0.021,106.0,104.0,104.0,13.4,1505.2,321.1,-0.8,1.8,2471.071,13.29,0.033,122.7
2023-01-27T08:34:03,42.805,6.029,0.028,-0.045,-0.009,104.0,106.0,103.0,13.4,1505.2,330.9,-0.7,1.8,2471.105,13.29,0.053,148.1
2023-01-27T08:37:03,42.805,6.029,0.026,-0.01,-0.03,106.0,105.0,103.0,13.4,1505.2,331.7,-0.8,1.8,2471.059,13.29,0.027,111.0
2023-01-27T08:40:03,42.805,6.029,0.021,-0.019,-0.015,105.0,104.0,104.0,13.4,1505.2,337.6,-0.7,1.8,2471.05,13.29,0.028,132.1
2023-01-27T08:43:03,42.805,6.029,0.015,-0.013,-0.022,105.0,104.0,103.0,13.4,1505.2,334.3,-0.8,1.9,2471.056,13.29,0.019,130.9
2023-01-27T08:46:03,42.805,6.029,0.022,-0.004,-0.033,104.0,104.0,103.0,13.3,1505.2,318.1,-0.8,1.8,2471.1,13.29,0.022,100.3
2023-01-27T08:49:03,42.805,6.029,-0.006,-0.034,-0.055,105.0,103.0,102.0,13.4,1505.2,336.8,-0.7,1.8,2471.144,13.29,0.034,190.0
2023-01-27T08:52:03,42.805,6.029,0.013,-0.033,-0.031,106.0,102.0,102.0,13.4,1505.2,320.6,-0.8,1.8,2471.109,13.29,0.035,158.5
2023-01-27T08:55:03,42.805,6.029,0.007,-0.023,-0.003,104.0,104.0,102.0,13.4,1505.2,325.1,-0.8,1.8,2471.118,13.29,0.024,163.1
2023-01-27T08:58:03,42.805,6.029,0.036,-0.032,0.0,103.0,104.0,103.0,13.4,1505.2,326.9,-0.8,1.8,2471.105,13.29,0.048,131.6
2023-01-27T09:04:03,42.805,6.029,0.019,-0.028,0.002,104.0,103.0,103.0,13.3,1505.2,325.3,-0.8,1.8,2471.192,13.28,0.033,145.8
2023-01-27T09:07:03,42.805,6.029,0.014,-0.01,-0.014,105.0,104.0,102.0,13.4,1505.2,338.3,-0.8,1.8,2471.145,13.28,0.017,125.5
2023-01-27T09:10:03,42.805,6.029,0.019,-0.034,-0.012,104.0,103.0,103.0,13.4,1505.2,316.6,-0.8,1.8,2471.174,13.28,0.038,150.8
2023-01-27T09:13:03,42.805,6.029,0.013,-0.042,-0.026,105.0,104.0,103.0,13.3,1505.2,326.3,-0.8,1.9,2471.191,13.29,0.043,162.8
2023-01-27T09:16:03,42.805,6.029,0.025,-0.003,-0.019,104.0,103.0,103.0,13.4,1505.2,323.4,-0.8,1.8,2471.151,13.29,0.025,96.8
2023-01-27T09:19:03,42.805,6.029,0.008,-0.031,-0.02,104.0,103.0,102.0,13.4,1505.2,336.8,-0.8,1.8,2471.086,13.29,0.032,165.5
2023-01-27T09:22:03,42.805,6.029,-0.003,-0.027,-0.003,104.0,104.0,102.0,13.4,1505.2,318.0,-0.8,1.8,2471.15,13.29,0.027,186.3
2023-01-27T09:25:03,42.805,6.029,0.007,-0.031,-0.041,104.0,103.0,102.0,13.4,1505.2,318.3,-0.8,1.8,2471.185,13.29,0.031,167.3
2023-01-27T09:28:03,42.805,6.029,0.015,-0.022,0.0,104.0,104.0,102.0,13.4,1505.2,321.0,-0.8,1.8,2471.121,13.29,0.026,145.7
2023-01-27T09:31:03,42.805,6.029,0.019,-0.03,-0.018,104.0,104.0,102.0,13.4,1505.2,328.2,-0.8,1.8,2471.147,13.29,0.035,147.7
2023-01-27T09:34:03,42.805,6.029,0.018,-0.017,-0.002,104.0,104.0,103.0,13.4,1505.2,336.8,-0.8,1.8,2471.152,13.29,0.024,133.4
2023-01-27T09:37:03,42.805,6.029,0.002,-0.008,-0.006,104.0,104.0,103.0,13.4,1505.2,330.4,-0.8,1.8,2471.136,13.29,0.008,166.0
2023-01-27T09:40:03,42.805,6.029,0.033,-0.041,-0.015,104.0,103.0,101.0,13.4,1505.2,328.3,-0.7,1.8,2471.187,13.29,0.052,141.2
2023-01-27T09:43:03,42.805,6.029,0.007,-0.024,0.003,104.0,103.0,103.0,13.4,1505.2,337.6,-0.8,1.8,2471.177,13.29,0.025,163.7
2023-01-27T09:46:03,42.805,6.029,0.008,-0.015,-0.009,104.0,104.0,102.0,13.4,1505.2,327.9,-0.8,1.8,2471.171,13.29,0.017,151.9
2023-01-27T09:49:03,42.805,6.029,0.008,-0.032,-0.031,102.0,104.0,103.0,13.4,1505.2,318.9,-0.7,1.8,2471.16,13.29,0.032,166.0
2023-01-27T09:52:03,42.805,6.029,0.0,-0.015,-0.009,105.0,103.0,102.0,13.4,1505.2,326.8,-0.8,1.8,2471.151,13.29,0.015,180.0
2023-01-27T09:55:03,42.805,6.029,0.024,-0.04,-0.029,104.0,104.0,103.0,13.4,1505.2,328.2,-0.7,1.8,2471.185,13.29,0.046,149.0
2023-01-27T09:58:03,42.805,6.029,0.02,-0.04,-0.026,103.0,103.0,102.0,13.3,1505.2,332.6,-0.8,1.8,2471.136,13.29,0.044,153.4